Powrót do katalogu

FENGYUN 1C DEB

AktywnyPO
NORAD 30945·DEBRIS·🇨🇳 China

Wystrzelony May 10, 1999 z Taiyuan Satellite Launch Center

Loading…

Następne Przeloty (najbliższe 24 godziny)

TLE

ŚwieżeSource: Space-Track

Epoka: Sep 12, 2026, 01:38 UTC

1 30945U 99025BAK 26255.06839056  .00001957  00000-0  75010-3 0  9991
2 30945  99.3797 290.3125 0028356 334.2117  81.1611 14.31633723  3233

Śledź FENGYUN 1C DEB w czasie rzeczywistym z AllMySat

Download on the App Store